Time,TemperatureF,DewpointF,PressureIn,WindDirection,WindDirectionDegrees,WindSpeedMPH,WindSpeedGustMPH,Humidity,HourlyPrecipIn,Conditions,Clouds,dailyrainin,SoftwareType,DateUTC
2013-03-18 00:11:00,56.5,51.0,29.94,SSW,206,0.0,-999.0,81,-99.99,,,0.00,weatherlink.com 1.10,2013-03-18 04:11:00,
2013-03-18 00:26:00,56.0,51.0,29.94,SSW,206,0.0,-999.0,82,-99.99,,,0.00,weatherlink.com 1.10,2013-03-18 04:26:00,
2013-03-18 00:41:00,55.5,50.0,29.94,SSW,206,0.0,-999.0,83,-99.99,,,0.00,weatherlink.com 1.10,2013-03-18 04:41:00,
2013-03-18 00:56:00,55.3,51.0,29.94,SSW,206,0.0,-999.0,85,-99.99,,,0.00,weatherlink.com 1.10,2013-03-18 04:56:00,
2013-03-18 01:26:00,54.9,51.0,29.94,SSW,198,0.0,-999.0,85,-99.99,,,0.00,weatherlink.com 1.10,2013-03-18 05:26:00,
2013-03-18 01:41:00,55.0,51.0,29.94,SSW,198,2.0,-999.0,86,-99.99,,,0.00,weatherlink.com 1.10,2013-03-18 05:41:00,
2013-03-18 02:11:00,57.3,55.0,29.93,South,171,4.0,-999.0,90,-99.99,,,0.00,weatherlink.com 1.10,2013-03-18 06:11:00,
2013-03-18 02:26:00,58.2,55.0,29.93,SSE,160,2.0,-999.0,90,-99.99,,,0.00,weatherlink.com 1.10,2013-03-18 06:26:00,
2013-03-18 02:56:00,58.8,56.0,29.93,ESE,120,3.0,-999.0,91,-99.99,,,0.00,weatherlink.com 1.10,2013-03-18 06:56:00,
2013-03-18 03:11:00,59.3,56.0,29.93,South,189,3.0,-999.0,90,-99.99,,,0.00,weatherlink.com 1.10,2013-03-18 07:11:00,
2013-03-18 03:26:00,59.7,57.0,29.93,SSW,192,2.0,-999.0,90,-99.99,,,0.00,weatherlink.com 1.10,2013-03-18 07:26:00,
2013-03-18 03:41:00,60.0,57.0,29.93,SSE,168,3.0,-999.0,90,-99.99,,,0.00,weatherlink.com 1.10,2013-03-18 07:41:00,
2013-03-18 03:56:00,60.3,57.0,29.93,SE,137,1.0,-999.0,89,-99.99,,,0.00,weatherlink.com 1.10,2013-03-18 07:56:00,
2013-03-18 04:11:00,60.2,57.0,29.92,SSE,162,4.0,-999.0,89,-99.99,,,0.00,weatherlink.com 1.10,2013-03-18 08:11:00,
2013-03-18 04:26:00,60.1,57.0,29.93,SE,144,3.0,-999.0,89,-99.99,,,0.00,weatherlink.com 1.10,2013-03-18 08:26:00,
2013-03-18 04:41:00,60.1,57.0,29.93,South,189,1.0,-999.0,89,-99.99,,,0.00,weatherlink.com 1.10,2013-03-18 08:41:00,
2013-03-18 04:56:00,60.0,57.0,29.93,South,171,3.0,-999.0,88,-99.99,,,0.00,weatherlink.com 1.10,2013-03-18 08:56:00,
2013-03-18 05:11:00,59.8,57.0,29.92,South,189,3.0,-999.0,89,-99.99,,,0.00,weatherlink.com 1.10,2013-03-18 09:11:00,
2013-03-18 05:27:00,59.6,56.0,29.92,SW,227,0.0,-999.0,89,-99.99,,,0.00,weatherlink.com 1.10,2013-03-18 09:27:00,
2013-03-18 05:42:00,59.5,57.0,29.92,South,191,1.0,-999.0,90,-99.99,,,0.00,weatherlink.com 1.10,2013-03-18 09:42:00,
2013-03-18 05:56:00,59.4,57.0,29.92,SSE,168,2.0,-999.0,90,-99.99,,,0.00,weatherlink.com 1.10,2013-03-18 09:56:00,
2013-03-18 06:12:00,59.3,56.0,29.93,SSE,164,1.0,-999.0,90,-99.99,,,0.00,weatherlink.com 1.10,2013-03-18 10:12:00,
2013-03-18 06:26:00,59.2,57.0,29.93,SSE,152,3.0,-999.0,91,-99.99,,,0.00,weatherlink.com 1.10,2013-03-18 10:26:00,
2013-03-18 06:42:00,59.1,56.0,29.94,SSE,168,0.0,-999.0,90,-99.99,,,0.00,weatherlink.com 1.10,2013-03-18 10:42:00,
2013-03-18 06:57:00,59.1,56.0,29.95,SSE,154,1.0,-999.0,90,-99.99,,,0.00,weatherlink.com 1.10,2013-03-18 10:57:00,
2013-03-18 07:12:00,59.0,56.0,29.95,South,171,1.0,-999.0,90,-99.99,,,0.00,weatherlink.com 1.10,2013-03-18 11:12:00,
2013-03-18 07:27:00,58.9,56.0,29.96,SSE,166,3.0,-999.0,89,-99.99,,,0.00,weatherlink.com 1.10,2013-03-18 11:27:00,
2013-03-18 07:42:00,58.8,56.0,29.96,SSE,161,1.0,-999.0,90,-99.99,,,0.00,weatherlink.com 1.10,2013-03-18 11:42:00,
2013-03-18 07:57:00,58.7,56.0,29.98,South,189,1.0,-999.0,90,-99.99,,,0.00,weatherlink.com 1.10,2013-03-18 11:57:00,
2013-03-18 08:12:00,58.7,56.0,29.97,SSE,168,1.0,-999.0,90,-99.99,,,0.00,weatherlink.com 1.10,2013-03-18 12:12:00,
2013-03-18 08:27:00,58.6,56.0,29.97,SE,141,1.0,-999.0,90,-99.99,,,0.00,weatherlink.com 1.10,2013-03-18 12:27:00,
2013-03-18 08:42:00,58.5,56.0,29.96,SSE,151,1.0,-999.0,90,-99.99,,,0.00,weatherlink.com 1.10,2013-03-18 12:42:00,
2013-03-18 08:57:00,58.5,56.0,29.97,ESE,117,3.0,-999.0,90,-99.99,,,0.00,weatherlink.com 1.10,2013-03-18 12:57:00,
2013-03-18 09:12:00,58.5,55.0,29.95,SSE,157,4.0,-999.0,89,-99.99,,,0.00,weatherlink.com 1.10,2013-03-18 13:12:00,
2013-03-18 09:27:00,58.9,56.0,29.94,SSE,167,2.0,-999.0,89,-99.99,,,0.00,weatherlink.com 1.10,2013-03-18 13:27:00,
2013-03-18 09:42:00,59.2,56.0,29.94,SSE,162,5.0,-999.0,88,-99.99,,,0.00,weatherlink.com 1.10,2013-03-18 13:42:00,
2013-03-18 09:57:00,59.5,56.0,29.93,South,171,0.0,-999.0,87,-99.99,,,0.00,weatherlink.com 1.10,2013-03-18 13:57:00,
2013-03-18 10:12:00,59.5,56.0,29.93,SSE,150,3.0,-999.0,87,-99.99,,,0.00,weatherlink.com 1.10,2013-03-18 14:12:00,
2013-03-18 10:27:00,57.4,51.0,29.93,ENE,74,2.0,-999.0,80,-99.99,,,0.00,weatherlink.com 1.10,2013-03-18 14:27:00,
2013-03-18 10:42:00,55.4,50.0,29.95,NE,52,3.0,-999.0,82,-99.99,,,0.00,weatherlink.com 1.10,2013-03-18 14:42:00,
2013-03-18 10:57:00,55.1,50.0,29.96,ESE,103,2.0,-999.0,84,-99.99,,,0.00,weatherlink.com 1.10,2013-03-18 14:57:00,
2013-03-18 11:12:00,54.6,50.0,29.96,ENE,74,7.0,-999.0,84,-99.99,,,0.00,weatherlink.com 1.10,2013-03-18 15:12:00,
2013-03-18 11:27:00,54.0,49.0,29.95,NE,52,7.0,-999.0,84,-99.99,,,0.00,weatherlink.com 1.10,2013-03-18 15:27:00,
2013-03-18 11:42:00,53.7,49.0,29.94,ESE,112,3.0,-999.0,85,-99.99,,,0.00,weatherlink.com 1.10,2013-03-18 15:42:00,
2013-03-18 11:57:00,54.3,50.0,29.94,ENE,66,2.0,-999.0,85,-99.99,,,0.00,weatherlink.com 1.10,2013-03-18 15:57:00,
2013-03-18 12:12:00,53.4,50.0,29.94,ENE,60,1.0,-999.0,87,-99.99,,,0.02,weatherlink.com 1.10,2013-03-18 16:12:00,
2013-03-18 12:27:00,52.5,50.0,29.93,ENE,60,2.0,-999.0,90,-99.99,,,0.02,weatherlink.com 1.10,2013-03-18 16:27:00,
2013-03-18 12:42:00,52.2,50.0,29.91,ESE,104,7.0,-999.0,91,-99.99,,,0.02,weatherlink.com 1.10,2013-03-18 16:42:00,
2013-03-18 12:57:00,51.9,49.0,29.92,SSE,157,0.0,-999.0,91,-99.99,,,0.03,weatherlink.com 1.10,2013-03-18 16:57:00,
2013-03-18 13:12:00,51.7,50.0,29.91,East,89,3.0,-999.0,93,-99.99,,,0.09,weatherlink.com 1.10,2013-03-18 17:12:00,
2013-03-18 13:27:00,51.9,50.0,29.90,East,93,2.0,-999.0,93,-99.99,,,0.09,weatherlink.com 1.10,2013-03-18 17:27:00,
2013-03-18 13:42:00,52.3,51.0,29.89,ESE,110,6.0,-999.0,94,-99.99,,,0.09,weatherlink.com 1.10,2013-03-18 17:42:00,
2013-03-18 13:57:00,53.0,51.0,29.88,ESE,122,1.0,-999.0,94,-99.99,,,0.09,weatherlink.com 1.10,2013-03-18 17:57:00,
2013-03-18 14:12:00,53.4,52.0,29.88,NE,54,2.0,-999.0,94,-99.99,,,0.09,weatherlink.com 1.10,2013-03-18 18:12:00,
2013-03-18 14:27:00,53.0,51.0,29.88,East,80,2.0,-999.0,93,-99.99,,,0.09,weatherlink.com 1.10,2013-03-18 18:27:00,
2013-03-18 14:42:00,52.7,51.0,29.86,ESE,103,7.0,-999.0,93,-99.99,,,0.09,weatherlink.com 1.10,2013-03-18 18:42:00,
2013-03-18 14:57:00,52.8,51.0,29.86,ENE,58,6.0,-999.0,93,-99.99,,,0.09,weatherlink.com 1.10,2013-03-18 18:57:00,
2013-03-18 15:12:00,52.7,51.0,29.86,NNE,29,4.0,-999.0,92,-99.99,,,0.09,weatherlink.com 1.10,2013-03-18 19:12:00,
2013-03-18 15:27:00,52.6,51.0,29.86,East,83,4.0,-999.0,93,-99.99,,,0.09,weatherlink.com 1.10,2013-03-18 19:27:00,
2013-03-18 15:42:00,52.5,51.0,29.85,East,87,4.0,-999.0,93,-99.99,,,0.09,weatherlink.com 1.10,2013-03-18 19:42:00,
2013-03-18 15:57:00,52.4,51.0,29.85,NE,56,4.0,-999.0,93,-99.99,,,0.09,weatherlink.com 1.10,2013-03-18 19:57:00,
2013-03-18 16:12:00,52.4,51.0,29.85,NNE,33,5.0,-999.0,93,-99.99,,,0.09,weatherlink.com 1.10,2013-03-18 20:12:00,
2013-03-18 16:27:00,52.3,50.0,29.85,SE,137,1.0,-999.0,93,-99.99,,,0.09,weatherlink.com 1.10,2013-03-18 20:27:00,
2013-03-18 16:43:00,51.8,50.0,29.83,SE,129,8.0,-999.0,92,-99.99,,,0.09,weatherlink.com 1.10,2013-03-18 20:43:00,
2013-03-18 16:58:00,51.4,50.0,29.84,ENE,74,2.0,-999.0,93,-99.99,,,0.09,weatherlink.com 1.10,2013-03-18 20:58:00,
2013-03-18 17:13:00,51.2,49.0,29.84,NE,56,9.0,-999.0,93,-99.99,,,0.09,weatherlink.com 1.10,2013-03-18 21:13:00,
2013-03-18 17:28:00,50.2,48.0,29.84,ESE,112,2.0,-999.0,92,-99.99,,,0.09,weatherlink.com 1.10,2013-03-18 21:28:00,
2013-03-18 17:43:00,49.6,48.0,29.82,NE,56,3.0,-999.0,93,-99.99,,,0.09,weatherlink.com 1.10,2013-03-18 21:43:00,
2013-03-18 17:58:00,49.1,48.0,29.82,ESE,104,2.0,-999.0,94,-99.99,,,0.09,weatherlink.com 1.10,2013-03-18 21:58:00,
2013-03-18 18:13:00,49.0,48.0,29.83,NNE,16,3.0,-999.0,95,-99.99,,,0.09,weatherlink.com 1.10,2013-03-18 22:13:00,
2013-03-18 18:28:00,47.2,45.0,29.93,North,3,7.0,-999.0,92,-99.99,,,0.49,weatherlink.com 1.10,2013-03-18 22:28:00,
2013-03-18 18:43:00,46.7,45.0,29.93,NE,37,3.0,-999.0,95,-99.99,,,0.57,weatherlink.com 1.10,2013-03-18 22:43:00,
2013-03-18 18:58:00,46.7,46.0,29.91,NE,45,0.0,-999.0,96,-99.99,,,0.62,weatherlink.com 1.10,2013-03-18 22:58:00,
2013-03-18 19:13:00,46.7,46.0,29.87,ENE,58,3.0,-999.0,96,-99.99,,,0.64,weatherlink.com 1.10,2013-03-18 23:13:00,
2013-03-18 19:28:00,46.5,46.0,29.81,East,95,2.0,-999.0,96,-99.99,,,0.64,weatherlink.com 1.10,2013-03-18 23:28:00,
2013-03-18 19:43:00,46.7,46.0,29.81,NE,54,1.0,-999.0,97,-99.99,,,0.64,weatherlink.com 1.10,2013-03-18 23:43:00,
2013-03-18 19:58:00,47.0,46.0,29.83,NE,37,2.0,-999.0,97,-99.99,,,0.65,weatherlink.com 1.10,2013-03-18 23:58:00,
2013-03-18 20:13:00,46.9,46.0,29.83,NE,37,0.0,-999.0,97,-99.99,,,0.65,weatherlink.com 1.10,2013-03-19 00:13:00,
2013-03-18 20:28:00,46.8,46.0,29.84,NE,37,0.0,-999.0,97,-99.99,,,0.65,weatherlink.com 1.10,2013-03-19 00:28:00,
2013-03-18 20:43:00,46.8,46.0,29.84,NE,37,0.0,-999.0,97,-99.99,,,0.65,weatherlink.com 1.10,2013-03-19 00:43:00,
2013-03-18 20:58:00,46.7,46.0,29.84,ENE,70,0.0,-999.0,97,-99.99,,,0.65,weatherlink.com 1.10,2013-03-19 00:58:00,
2013-03-18 21:13:00,46.7,46.0,29.84,ENE,71,1.0,-999.0,97,-99.99,,,0.65,weatherlink.com 1.10,2013-03-19 01:13:00,
2013-03-18 21:28:00,46.5,46.0,29.84,East,82,0.0,-999.0,97,-99.99,,,0.65,weatherlink.com 1.10,2013-03-19 01:28:00,
2013-03-18 21:43:00,46.4,46.0,29.86,East,82,2.0,-999.0,97,-99.99,,,0.65,weatherlink.com 1.10,2013-03-19 01:43:00,
2013-03-18 21:58:00,46.3,46.0,29.87,ENE,64,0.0,-999.0,97,-99.99,,,0.65,weatherlink.com 1.10,2013-03-19 01:58:00,
2013-03-18 22:13:00,46.2,45.0,29.87,ENE,64,1.0,-999.0,97,-99.99,,,0.65,weatherlink.com 1.10,2013-03-19 02:13:00,
2013-03-18 22:28:00,46.4,46.0,29.88,ENE,65,2.0,-999.0,97,-99.99,,,0.65,weatherlink.com 1.10,2013-03-19 02:28:00,
2013-03-18 22:43:00,46.4,46.0,29.89,ENE,65,0.0,-999.0,97,-99.99,,,0.65,weatherlink.com 1.10,2013-03-19 02:43:00,
2013-03-18 22:58:00,46.3,46.0,29.89,ENE,65,1.0,-999.0,97,-99.99,,,0.65,weatherlink.com 1.10,2013-03-19 02:58:00,
2013-03-18 23:13:00,46.1,45.0,29.89,ENE,65,0.0,-999.0,97,-99.99,,,0.65,weatherlink.com 1.10,2013-03-19 03:13:00,
2013-03-18 23:28:00,45.8,45.0,29.90,ENE,65,0.0,-999.0,97,-99.99,,,0.65,weatherlink.com 1.10,2013-03-19 03:28:00,
2013-03-18 23:43:00,45.6,45.0,29.90,ENE,65,0.0,-999.0,97,-99.99,,,0.66,weatherlink.com 1.10,2013-03-19 03:43:00,
2013-03-18 23:58:00,45.4,45.0,29.90,ENE,65,1.0,-999.0,97,-99.99,,,0.00,weatherlink.com 1.10,2013-03-19 03:58:00,